Tracking 27122 objects as of 24-Mar-2023
HD Live streaming from Space Station
objects crossing your sky now

FLOCK 4V 2

Track FLOCK 4V 2 now!
10-day predictions
FLOCK 4V 2 is classified as:


NORAD ID: 46321
Int'l Code: 2020-061BB
Perigee: 494.6 km
Apogee: 497.3 km
Inclination: 97.4 °
Period: 94.4 minutes
Semi major axis: 6866 km
RCS: Unknown
Launch date: September 3, 2020
Source: United States (US)
Launch site: FRENCH GUIANA (FRGUI)
Your satellite tracking list
Your tracking list is empty




NASA's NSSDC Master Catalog

Two Line Element Set (TLE):
1 46321U 20061BB  23083.17808355  .00119199  00000-0  46170-2 0  9998
2 46321  97.4124 154.9259 0001937 246.7929 113.3105 15.25652928140902
Source of the keplerian elements: AFSPC